Location: ?astrovice
(49.6513°N, 14.9287°E)
Time: 14:35:01
(UTC+00:00)

FO-99 - Pass Details

Date: 28 October 2021
Orbit: 469 x 501 km, 97.2° (Epoch: 30 November)

Event Time Altitude Azimuth Distance (km) Brightness Sun altitude
Exits shadow 18:25:07 11° 354° (N) 1,633 ? -26.4°
Drops below altitude 10° 18:25:21 10° 353° (N) 1,726 ? -26.5°
Sets 18:27:28 0° 351° (N) 2,617 ? -26.8°
